Regional Weather Roundup
Issued by NWS

Home | Current Version | Previous Version | Graphics & Text | Print | Product List | Glossary On
Versions: 1 2 3 4 5 6 7 8 9 10 11 12 13 14 15 16 17 18 19 20 21 22 23 24 25 26 27 28 29 30 31 32 33 34 35 36 37 38 39 40 41 42 43 44 45 46 47 48 49 50
173
ASUS43 KDMX 051503
RWRIA

WEATHER ROUNDUP FOR IOWA
NATIONAL WEATHER SERVICE DES MOINES IA
1000 AM CDT THU MAY 05 2016

NOTE: "FAIR" INDICATES FEW OR NO CLOUDS BELOW 12,000 FEET WITH NO
SIGNIFICANT WEATHER AND/OR OBSTRUCTIONS TO VISIBILITY.

* - THESE STATIONS ARE NOT NWS STATIONS...THUS NOT UNDER NWS
QUALITY CONTROL.  THEY ALSO DO NOT REPORT WEATHER SUCH
AS PRECIPITATION OR FOG.

IAZ001>003-012>014-020>022-031>034-043>046-051600-
   NORTHWEST IOWA

CITY           SKY/WX    TMP DP  RH WIND       PRES   REMARKS
CARROLL *      SUNNY     57  37  47 CALM      30.09S
CHEROKEE *     SUNNY     57  43  58 S3        30.09R
DENISON *      SUNNY     57  45  62 CALM      30.08R
LE MARS *      SUNNY     59  41  51 S6        30.08S
ORANGE CITY *  SUNNY     61  37  41 SW3       30.07S
SHELDON *      SUNNY     63  37  39 VRB5      30.07R
SIOUX CITY     SUNNY     61  45  55 CALM      30.08S
SPENCER        SUNNY     59  39  47 S6        30.09R
STORM LAKE *   SUNNY     61  34  36 SW7       30.09S
$$

IAZ055>058-069>071-079>083-090>094-051600-
   SOUTHWEST IOWA

CITY           SKY/WX    TMP DP  RH WIND       PRES   REMARKS
ATLANTIC *     SUNNY     57  43  58 CALM      30.10R
AUDUBON *      SUNNY     59  39  47 CALM      30.10R
CLARINDA *       N/A     59  45  58 MISG      30.11R
COUNCIL BLFS * SUNNY     61  43  51 CALM      30.09S
CRESTON *      SUNNY     57  36  44 E6        30.10S
HARLAN  *      SUNNY     59  39  47 VRB3      30.13R
LAMONI         SUNNY     58  38  47 VRB3      30.09R
RED OAK *      SUNNY     59  45  58 CALM      30.10S
SHENANDOAH *   SUNNY     61  45  55 CALM      30.10S
$$

IAZ047>049-059>061-072>074-084-051600-
   CENTRAL IOWA

CITY           SKY/WX    TMP DP  RH WIND       PRES   REMARKS
AMES           CLOUDY    55  36  48 E5        30.11R
ANKENY *       CLOUDY    55  36  47 CALM      30.10S
BOONE *        MOSUNNY   57  32  38 S5        30.10R
CHARITON *     SUNNY     55  36  47 E5        30.09S
DES MOINES     MOSUNNY   58  32  37 NE3       30.10S
GRINNELL*      PTSUNNY   54  34  47 NE3       30.10R
KNOXVILLE *    PTSUNNY   55  34  44 CALM      30.08S
MARSHALLTOWN   CLOUDY    54  34  46 VRB5      30.09S
NEWTON *       CLOUDY    54  36  50 CALM      30.10R
PERRY *          N/A     57  34  41 SE6       30.10R
$$

IAZ004>006-015-016-023>025-035-036-051600-
   NORTH CENTRAL IOWA

CITY           SKY/WX    TMP DP  RH WIND       PRES   REMARKS
ALGONA *       SUNNY     57  30  35 S9        30.10S
CLARION *      MOSUNNY   57  28  33 SE6       30.10S
ESTHERVILLE    SUNNY     57  37  47 S8        30.08S
FORT DODGE *   MOSUNNY   57  32  38 S6        30.11S
MASON CITY       N/A     56  33  42 VRB3      30.12R
FOREST CITY *    N/A     55  32  41 SE6       30.10S
WEBSTER CITY * PTSUNNY   57  32  38 SE6       30.09R
IOWA FALLS *   PTSUNNY   52  34  50 CALM      30.11S
$$

IAZ007>011-017>019-026>030-037>042-050>054-066-051600-
   NORTHEAST IOWA

CITY           SKY/WX    TMP DP  RH WIND       PRES   REMARKS
CEDAR RAPIDS   SUNNY     54  38  54 N8        30.08R
CHARLES CITY * PTSUNNY   52  32  46 CALM      30.11R
CLINTON *      SUNNY     50  38  63 N6        30.08R
DECORAH *      SUNNY     52  36  54 VRB5      30.08S
DUBUQUE        SUNNY     51  37  58 N8        30.07R
MONTICELLO *   SUNNY     52  37  58 N6G12     30.07S
OELWEIN *      MOSUNNY   54  36  50 N7        30.10R
WATERLOO       CLOUDY    53  34  48 N5        30.10R
$$

IAZ064-065-067-068-078-051600-
   EAST CENTRAL IOWA

CITY           SKY/WX    TMP DP  RH WIND       PRES   REMARKS
DAVENPORT      SUNNY     51  36  56 N10       30.07R
IOWA CITY      SUNNY     54  38  54 N7        30.10R
MT. PLEASANT * SUNNY     56  40  54 N10       30.08R
MUSCATINE *    SUNNY     54  39  58 N7G13     30.09R
QUAD CITIES    SUNNY     53  36  52 NE9       30.06
$$

IAZ062-063-075>077-085>089-095>099-051600-
   SOUTHEAST IOWA

CITY           SKY/WX    TMP DP  RH WIND       PRES   REMARKS
BURLINGTON     SUNNY     53  41  63 N7        30.07R
FAIRFIELD *    SUNNY     54  36  50 NE8       30.09R
FORT MADISON * SUNNY     54  41  62 N3        30.08R
KEOKUK *       SUNNY     54  39  58 VRB7G14   30.06S
OSKALOOSA *      N/A     55  34  45 NE8       30.10S
OTTUMWA        SUNNY     55  35  47 N7        30.09R
WASHINGTON *   SUNNY     54  37  54 N9        30.10R
$$

ABBREVIATIONS USED IN REMARKS
   TC - TEMPERATURES IN CELSIUS
  WCI - WIND CHILL INDEX
   HX - HEAT INDEX
  VSB - VISIBILITY
$$





USA.gov is the U.S. government's official web portal to all federal, state and local government web resources and services.